Location: *
(43.9900°N, 3.4811°E)
Time: 05:26:12
(UTC+00:00)

CZ-2C R/B - Pass Details

Date: 25 August 2019
Orbit: 785 x 870 km, 98.3° (Epoch: 22 September)

Event Time Altitude Azimuth Distance (km) Brightness Sun altitude
Rises 19:35:34 0° 29° (NNE) 3,333 5.8 -11.0°
Reaches altitude 10° 19:38:38 10° 48° (NE) 2,412 4.9 -11.5°
Maximum altitude 19:42:17 18° 91° (E) 1,901 4.0 -12.1°
Enters shadow 19:43:45 17° 111° (ESE) 2,000 4.0 -12.3°
